• In Uzbekistan
  • List of Countries
  • For 7 days
  • Water Temperature
  • Satellite Maps
  • Weather Map
  • Weather Widgets
  • user-avatar
    Login

    Hourly Weather Lovcy

    Today, 16 July, Tuesday

    Time Temperature Precipitation Wind Pressure Humidity
    00:00 +12°C° 0 mm 1 mps 739 mmHg 88%
    01:00 +12°C° 0 mm 1 mps 739 mmHg 89%
    02:00 +12°C° 0 mm 1 mps 739 mmHg 88%
    03:00 +12°C° 0 mm 1 mps 739 mmHg 89%
    04:00 +12°C° 0 mm 1 mps 739 mmHg 89%
    05:00 +12°C° 0 mm 1 mps 739 mmHg 89%
    06:00 +13°C° 0 mm 1 mps 738 mmHg 86%
    07:00 +15°C° 0 mm 1 mps 738 mmHg 83%
    08:00 +18°C° 0 mm 1 mps 738 mmHg 81%
    09:00 +18°C° 0.9 mm 2 mps 738 mmHg 77%
    10:00 +19°C° 0.9 mm 2 mps 737 mmHg 73%
    11:00 +20°C° 0.9 mm 3 mps 737 mmHg 70%
    12:00 +20°C° 0.8 mm 3 mps 737 mmHg 70%
    13:00 +20°C° 0.8 mm 3 mps 736 mmHg 71%
    14:00 +20°C° 0.8 mm 3 mps 736 mmHg 72%
    15:00 +19°C° 1 mm 3 mps 736 mmHg 78%
    16:00 +17°C° 1 mm 2 mps 736 mmHg 85%
    17:00 +16°C° 1 mm 1 mps 736 mmHg 91%
    18:00 +15°C° 0.8 mm 2 mps 736 mmHg 91%
    19:00 +14°C° 0.8 mm 3 mps 735 mmHg 91%
    20:00 +14°C° 0.8 mm 3 mps 735 mmHg 91%
    21:00 +13°C° 0.1 mm 3 mps 735 mmHg 93%
    22:00 +12°C° 0.1 mm 3 mps 735 mmHg 95%
    23:00 +11°C° 0.1 mm 3 mps 735 mmHg 96%

    Tomorrow, 17 July, Wednesday

    Time Temperature Precipitation Wind Pressure Humidity
    00:00 +10°C° 0 mm 3 mps 735 mmHg 97%
    01:00 +10°C° 0 mm 3 mps 735 mmHg 97%
    02:00 +9°C° 0 mm 3 mps 735 mmHg 97%
    03:00 +9°C° 0 mm 3 mps 735 mmHg 97%
    04:00 +9°C° 0 mm 3 mps 735 mmHg 97%
    05:00 +9°C° 0 mm 3 mps 735 mmHg 97%
    06:00 +10°C° 0 mm 3 mps 735 mmHg 95%
    07:00 +11°C° 0 mm 3 mps 735 mmHg 92%
    08:00 +13°C° 0 mm 3 mps 735 mmHg 90%
    09:00 +13°C° 0.6 mm 3 mps 735 mmHg 87%
    10:00 +14°C° 0.6 mm 3 mps 735 mmHg 84%
    11:00 +16°C° 0.6 mm 3 mps 735 mmHg 82%
    12:00 +16°C° 0.3 mm 3 mps 735 mmHg 77%
    13:00 +17°C° 0.3 mm 2 mps 735 mmHg 72%
    14:00 +18°C° 0.3 mm 2 mps 735 mmHg 68%
    15:00 +18°C° 0.4 mm 2 mps 735 mmHg 69%
    16:00 +18°C° 0.4 mm 2 mps 735 mmHg 71%
    17:00 +18°C° 0.4 mm 2 mps 735 mmHg 73%
    18:00 +17°C° 0.4 mm 2 mps 735 mmHg 79%
    19:00 +15°C° 0.4 mm 2 mps 735 mmHg 84%
    20:00 +13°C° 0.4 mm 3 mps 735 mmHg 90%
    21:00 +14°C° 0 mm 2 mps 735 mmHg 92%
    22:00 +13°C° 0 mm 2 mps 735 mmHg 93%
    23:00 +12°C° 0 mm 2 mps 735 mmHg 95%

    Day after tomorrow, 18 July, Thursday

    Time Temperature Precipitation Wind Pressure Humidity
    00:00 +12°C° 0 mm 2 mps 735 mmHg 96%
    01:00 +10°C° 0 mm 2 mps 735 mmHg 97%
    02:00 +10°C° 0 mm 2 mps 735 mmHg 98%
    03:00 +10°C° 0 mm 3 mps 735 mmHg 98%
    04:00 +10°C° 0 mm 3 mps 735 mmHg 98%
    05:00 +10°C° 0 mm 3 mps 736 mmHg 98%
    06:00 +11°C° 0 mm 3 mps 736 mmHg 98%
    07:00 +12°C° 0 mm 3 mps 736 mmHg 97%
    08:00 +13°C° 0 mm 4 mps 736 mmHg 96%
    09:00 +13°C° 0 mm 4 mps 736 mmHg 95%
    10:00 +13°C° 0 mm 4 mps 736 mmHg 94%
    11:00 +14°C° 0 mm 4 mps 737 mmHg 93%
    12:00 +15°C° 0.2 mm 4 mps 737 mmHg 88%
    13:00 +18°C° 0.2 mm 4 mps 737 mmHg 84%
    14:00 +19°C° 0.2 mm 4 mps 737 mmHg 79%
    15:00 +19°C° 1 mm 4 mps 737 mmHg 82%
    16:00 +19°C° 1 mm 4 mps 737 mmHg 84%
    17:00 +19°C° 1 mm 4 mps 737 mmHg 86%
    18:00 +18°C° 0.3 mm 4 mps 737 mmHg 88%
    19:00 +17°C° 0.3 mm 3 mps 738 mmHg 90%
    20:00 +16°C° 0.3 mm 3 mps 738 mmHg 92%
    21:00 +14°C° 0 mm 3 mps 738 mmHg 93%
    22:00 +14°C° 0 mm 3 mps 738 mmHg 93%
    23:00 +13°C° 0 mm 3 mps 739 mmHg 94%

    19 July, Friday

    Time Temperature Precipitation Wind Pressure Humidity
    00:00 +12°C° 0 mm 3 mps 739 mmHg 94%
    01:00 +12°C° 0 mm 3 mps 739 mmHg 94%
    02:00 +11°C° 0 mm 3 mps 739 mmHg 94%
    03:00 +11°C° 0 mm 3 mps 739 mmHg 94%
    04:00 +10°C° 0 mm 3 mps 739 mmHg 94%
    05:00 +10°C° 0 mm 3 mps 739 mmHg 94%
    06:00 +12°C° 0 mm 3 mps 740 mmHg 91%
    07:00 +14°C° 0 mm 3 mps 740 mmHg 88%
    08:00 +16°C° 0 mm 3 mps 740 mmHg 85%
    09:00 +18°C° 0 mm 4 mps 740 mmHg 78%
    10:00 +19°C° 0 mm 4 mps 740 mmHg 70%
    11:00 +21°C° 0 mm 4 mps 741 mmHg 63%
    12:00 +21°C° 0 mm 4 mps 741 mmHg 60%
    13:00 +22°C° 0 mm 4 mps 741 mmHg 58%
    14:00 +22°C° 0 mm 4 mps 741 mmHg 55%
    15:00 +22°C° 0 mm 4 mps 741 mmHg 57%
    16:00 +22°C° 0 mm 3 mps 741 mmHg 58%
    17:00 +22°C° 0 mm 3 mps 741 mmHg 60%
    18:00 +21°C° 0 mm 3 mps 741 mmHg 66%
    19:00 +19°C° 0 mm 2 mps 741 mmHg 73%
    20:00 +17°C° 0 mm 2 mps 741 mmHg 79%
    21:00 +16°C° 0 mm 1 mps 741 mmHg 83%
    22:00 +15°C° 0 mm 1 mps 742 mmHg 86%
    23:00 +14°C° 0 mm 1 mps 742 mmHg 89%

    20 July, Saturday

    Time Temperature Precipitation Wind Pressure Humidity
    00:00 +14°C° 0 mm 1 mps 742 mmHg 90%
    01:00 +13°C° 0 mm 1 mps 742 mmHg 91%
    02:00 +13°C° 0 mm 1 mps 742 mmHg 92%
    03:00 +13°C° 0 mm 1 mps 742 mmHg 92%
    04:00 +13°C° 0 mm 1 mps 742 mmHg 91%
    05:00 +12°C° 0 mm 1 mps 743 mmHg 91%
    06:00 +14°C° 0 mm 1 mps 743 mmHg 85%
    07:00 +16°C° 0 mm 2 mps 743 mmHg 79%
    08:00 +18°C° 0 mm 2 mps 743 mmHg 73%
    09:00 +19°C° 0 mm 2 mps 743 mmHg 68%
    10:00 +20°C° 0 mm 2 mps 744 mmHg 64%
    11:00 +23°C° 0 mm 2 mps 744 mmHg 60%
    12:00 +23°C° 0 mm 2 mps 744 mmHg 59%
    13:00 +24°C° 0 mm 2 mps 744 mmHg 57%
    14:00 +25°C° 0 mm 2 mps 744 mmHg 56%
    15:00 +25°C° 0 mm 2 mps 744 mmHg 57%
    16:00 +25°C° 0 mm 2 mps 744 mmHg 59%
    17:00 +24°C° 0 mm 2 mps 744 mmHg 60%
    18:00 +23°C° 0.1 mm 2 mps 744 mmHg 66%
    19:00 +21°C° 0.1 mm 1 mps 744 mmHg 71%
    20:00 +20°C° 0.1 mm 1 mps 744 mmHg 76%
    21:00 +18°C° 0 mm 1 mps 744 mmHg 78%
    22:00 +16°C° 0 mm 1 mps 745 mmHg 80%
    23:00 +15°C° 0 mm 1 mps 745 mmHg 81%

    21 July, Sunday

    Time Temperature Precipitation Wind Pressure Humidity
    00:00 +15°C° 0 mm 1 mps 745 mmHg 82%
    01:00 +13°C° 0 mm 0 mps 745 mmHg 83%
    02:00 +13°C° 0 mm 0 mps 745 mmHg 83%
    03:00 +13°C° 0 mm 0 mps 745 mmHg 83%
    04:00 +13°C° 0 mm 0 mps 745 mmHg 82%
    05:00 +13°C° 0 mm 0 mps 745 mmHg 82%
    06:00 +15°C° 0 mm 0 mps 745 mmHg 77%
    07:00 +19°C° 0 mm 1 mps 746 mmHg 73%
    08:00 +21°C° 0 mm 1 mps 746 mmHg 68%
    09:00 +20°C° 0 mm 0 mps 746 mmHg 64%
    10:00 +22°C° 0 mm 0 mps 746 mmHg 60%
    11:00 +23°C° 0 mm 0 mps 746 mmHg 55%
    12:00 +24°C° 0 mm 0 mps 746 mmHg 53%
    13:00 +26°C° 0 mm 1 mps 746 mmHg 50%
    14:00 +26°C° 0 mm 1 mps 746 mmHg 48%
    15:00 +26°C° 0 mm 1 mps 746 mmHg 50%
    16:00 +26°C° 0 mm 1 mps 746 mmHg 52%
    17:00 +26°C° 0 mm 1 mps 746 mmHg 54%
    18:00 +24°C° 0 mm 1 mps 746 mmHg 59%
    19:00 +22°C° 0 mm 1 mps 746 mmHg 64%
    20:00 +19°C° 0 mm 0 mps 746 mmHg 69%
    21:00 +20°C° 0 mm 1 mps 746 mmHg 71%
    22:00 +19°C° 0 mm 1 mps 746 mmHg 72%
    23:00 +18°C° 0 mm 1 mps 746 mmHg 73%
    Show more